User: anonymous   Login
Location: Dürabuch
(48.2640°N, 11.2185°E)
Time: 20:35:31
(UTC+00:00)
Language:

Cosmos 1741 Rocket - Orbit

View from above orbital plane
View from above orbital plane
View from above satellite
View from above satellite

Ground track
Ground track

The orbit data is extracted from the following two-line orbital elements,

1 16682U 86030B   24206.27578490  .00000630  00000-0  22282-3 0  9994
2 16682  74.0256 141.0000 0015374 213.7041 257.3416 14.36652886  3216
Epoch (UTC): 24 July 2024 06:37:07
Eccentricity: 0.0015374
inclination: 74.0256°
perigee height: 758 km
apogee height: 780 km
right ascension of ascending node: 141.0000°
argument of perigee: 213.7041°
revolutions per day: 14.36652886
mean anomaly at epoch: 257.3416°
orbit number at epoch: 321

The dashed part of the orbit path shows where the satellite is in the earth's shadow,  

DLR